Terug naar catalogus

STARLINK-38308

ActiefCommunicatieSSO
NORAD 100386·PAYLOAD·🇺🇸 United States

Gelanceerd Aug 19, 2026 vanaf Vandenberg Space Force Base

Loading…

Volgende Passages (komende 24 uur)

TLE

VersSource: Space-Track

Epoch: Sep 14, 2026, 14:24 UTC

1 A0386U 26190R   26257.60005548 -.01028473  00000-0 -88418-2 0  9993
2 A0386  97.2832 111.6169 0004665 333.5943  26.5082 15.71728922  5446

Volg STARLINK-38308 in realtime met AllMySat

Download on the App Store